1486994400.62,28194,12.25,74254.5,-0.45,-46.07,-46.07,0,*67
1486994401.86,28195,12.25,74254.5,-0.45,-45.27,-45.21,0,*60
1486994403.09,28196,12.25,74252.3,-0.45,-45.21,-45.27,0,*63
1486994404.33,28197,12.25,74252.3,-0.47,-45.81,-45.67,0,*6E
1486994405.54,28198,12.25,74252.3,-0.45,-46.21,-46.21,0,*6B
1486994406.77,28199,12.25,74256.0,-0.45,-46.55,-46.49,0,*67
1486994408.0,28200,12.25,74258.0,-0.47,-45.61,-45.61,0,*6B
1486994409.24,28201,12.25,74252.0,-0.47,-45.47,-45.41,0,*6C
1486994410.48,28202,12.25,74256.8,-0.45,-45.27,-45.21,0,*6D
1486994411.74,28203,12.25,74252.8,-0.45,-45.07,-45.27,0,*68
1486994412.96,28204,12.25,74252.5,-0.43,-45.41,-45.53,0,*68
1486994414.18,28205,12.25,74254.8,-0.43,-47.09,-47.09,0,*6A
1486994415.42,28206,12.25,74252.3,-0.47,-48.07,-48.21,0,*69
1486994416.68,28207,12.25,74252.5,-0.49,-47.45,-47.37,0,*67
1486994417.91,28208,12.25,74254.3,-0.49,-46.15,-45.95,0,*66
1486994419.11,28209,12.25,74254.0,-0.49,-45.67,-45.67,0,*6C
1486994420.37,28210,12.31,74258.0,-0.49,-46.15,-46.27,0,*65
1486994421.63,28211,12.25,74252.5,-0.49,-47.23,-47.23,0,*65
1486994422.88,28212,12.31,74258.5,-0.51,-46.07,-45.95,0,*67
1486994424.09,28213,12.31,74258.3,-0.49,-46.75,-46.75,0,*67
1486994425.37,28214,12.25,74254.5,-0.51,-46.07,-46.15,0,*6A
1486994426.62,28215,12.25,74254.3,-0.51,-46.41,-46.35,0,*6B
1486994427.83,28216,12.31,74256.8,-0.53,-45.21,-45.21,0,*69
1486994429.06,28217,12.25,74258.0,-0.49,-44.87,-44.67,0,*6D
1486994430.32,28218,12.25,74254.8,-0.51,-45.27,-45.33,0,*60
1486994431.55,28219,12.31,74258.8,-0.49,-45.33,-45.27,0,*68
1486994432.77,28220,12.25,74256.3,-0.49,-45.33,-45.27,0,*62
1486994434.0,28221,12.25,74258.5,-0.49,-45.47,-45.53,0,*63
1486994435.22,28222,12.25,74256.8,-0.49,-45.73,-45.87,0,*6E
1486994436.46,28223,12.25,74256.5,-0.49,-45.95,-46.15,0,*6F
1486994437.69,28224,12.31,74258.3,-0.51,-46.35,-46.35,0,*6A
1486994438.98,28225,12.25,74254.8,-0.51,-46.15,-46.07,0,*68
1486994440.23,28226,12.25,74256.8,-0.51,-45.73,-45.87,0,*63
1486994441.48,28227,12.25,74256.0,-0.49,-45.47,-45.47,0,*60
1486994442.72,28228,12.31,74256.0,-0.49,-45.73,-45.73,0,*6F
1486994443.96,28229,12.25,74252.8,-0.49,-44.93,-44.79,0,*6A
1486994445.19,28230,12.25,74258.8,-0.49,-45.53,-45.47,0,*63
1486994446.4,28231,12.25,74256.3,-0.49,-45.53,-45.53,0,*67
1486994447.65,28232,12.31,74258.3,-0.49,-45.47,-45.47,0,*64
1486994448.91,28233,12.25,74256.0,-0.49,-46.27,-46.41,0,*65
1486994450.12,28234,12.31,74256.5,-0.49,-46.35,-46.35,0,*62
1486994451.38,28235,12.25,74256.5,-0.49,-46.07,-46.15,0,*60
1486994452.67,28236,12.25,74256.5,-0.51,-46.07,-46.07,0,*69
1486994453.87,28237,12.31,74258.3,-0.49,-45.95,-45.95,0,*61
1486994455.12,28238,12.25,74256.3,-0.51,-45.47,-45.53,0,*62
1486994456.35,28239,12.25,74254.8,-0.49,-45.87,-45.73,0,*64
1486994457.59,28240,12.25,74258.8,-0.49,-45.73,-45.73,0,*61
1486994458.88,28241,12.25,74256.8,-0.51,-46.27,-46.27,0,*69
1486994460.14,28242,12.31,74258.5,-0.49,-46.27,-46.27,0,*63
1486994461.39,28243,12.31,74258.8,-0.53,-46.41,-46.41,0,*69
1486994462.67,28244,12.31,74258.5,-0.55,-46.49,-46.41,0,*60
1486994463.87,28245,12.31,74260.8,-0.53,-46.21,-46.35,0,*6A
1486994465.12,28246,12.25,74256.5,-0.53,-47.45,-47.45,0,*6C
1486994466.35,28247,12.31,74256.8,-0.55,-46.35,-46.21,0,*6E
1486994467.6,28248,12.25,74256.5,-0.55,-45.73,-45.53,0,*66
1486994468.85,28249,12.31,74258.3,-0.53,-44.93,-44.67,0,*68
1486994470.12,28250,12.25,74258.0,-0.55,-44.93,-44.67,0,*66
1486994471.34,28251,12.25,74260.0,-0.53,-45.13,-44.93,0,*63
1486994472.57,28252,12.25,74260.0,-0.53,-45.13,-44.93,0,*60
1486994473.78,28253,12.25,74260.0,-0.53,-44.99,-44.87,0,*67
1486994475.03,28254,12.25,74258.5,-0.53,-44.93,-44.73,0,*61
1486994476.25,28255,12.25,74256.8,-0.51,-45.13,-45.13,0,*6C
1486994477.52,28256,12.25,74260.0,-0.51,-45.27,-45.33,0,*6A
1486994478.78,28257,12.25,74256.8,-0.49,-45.27,-45.27,0,*67
1486994480.03,28258,12.25,74256.3,-0.51,-45.07,-44.79,0,*69
1486994481.29,28259,12.25,74256.3,-0.51,-44.93,-44.87,0,*65
1486994482.5,28260,12.25,74256.0,-0.49,-45.95,-45.95,0,*63
1486994483.74,28261,12.25,74256.3,-0.51,-45.33,-45.27,0,*6E
1486994484.97,28262,12.31,74260.0,-0.51,-45.67,-45.53,0,*6F
1486994486.22,28263,12.25,74256.5,-0.51,-45.47,-45.67,0,*6B
1486994487.47,28264,12.31,74258.3,-0.51,-45.33,-45.27,0,*6B
1486994488.73,28265,12.25,74256.8,-0.49,-45.07,-44.93,0,*6A
1486994489.96,28266,12.31,74256.3,-0.49,-45.07,-44.87,0,*6C
1486994491.19,28267,12.31,74256.5,-0.49,-44.87,-44.67,0,*6A
1486994492.43,28268,12.31,74260.3,-0.49,-45.13,-44.93,0,*62
1486994493.65,28269,12.25,74256.5,-0.51,-45.13,-45.13,0,*63
1486994494.87,28270,12.31,74256.3,-0.49,-45.33,-45.27,0,*67
1486994496.14,28271,12.31,74256.8,-0.49,-46.07,-46.15,0,*60
1486994497.35,28272,12.25,74254.8,-0.49,-45.53,-45.53,0,*60
1486994498.56,28273,12.25,74252.0,-0.49,-45.53,-45.53,0,*61
1486994499.79,28274,12.31,74258.8,-0.49,-45.47,-45.33,0,*65
1486994501.05,28275,12.31,74258.0,-0.49,-45.27,-45.27,0,*67
1486994502.28,28276,12.31,74254.0,-0.49,-45.33,-45.27,0,*61
1486994503.51,28277,12.25,74252.5,-0.51,-45.53,-45.53,0,*6C
1486994504.75,28278,12.25,74252.3,-0.47,-45.81,-45.67,0,*6C
1486994506.0,28279,12.31,74258.0,-0.47,-45.81,-45.61,0,*6B
1486994507.22,28280,12.31,74258.0,-0.49,-46.55,-46.61,0,*6A
1486994508.51,28281,12.31,74256.0,-0.51,-46.15,-46.15,0,*65
1486994509.77,28282,12.25,74252.8,-0.51,-47.03,-46.97,0,*6A
1486994511.03,28283,12.25,74254.8,-0.51,-46.35,-46.27,0,*64
1486994512.31,28284,12.31,74258.8,-0.51,-46.27,-46.15,0,*61
1486994513.51,28285,12.31,74254.5,-0.53,-45.33,-45.33,0,*63
1486994514.71,28286,12.25,74254.8,-0.53,-45.95,-46.01,0,*6E
1486994515.92,28287,12.31,74256.0,-0.53,-46.01,-45.95,0,*6F
1486994517.12,28288,12.31,74254.0,-0.53,-45.53,-45.41,0,*6D
1486994518.31,28289,12.25,74254.0,-0.53,-45.41,-45.41,0,*6F
1486994519.55,28290,12.31,74254.5,-0.53,-46.35,-46.49,0,*6C
1486994520.8,28291,12.31,74254.8,-0.53,-46.89,-46.89,0,*66
1486994522.05,28292,12.25,74252.8,-0.55,-46.41,-46.35,0,*60
1486994523.3,28293,12.25,74254.5,-0.55,-46.49,-46.21,0,*6C
1486994524.54,28294,12.31,74254.8,-0.55,-46.83,-46.83,0,*65
1486994525.76,28295,12.25,74254.8,-0.55,-47.65,-47.51,0,*63
1486994527.03,28296,12.31,74254.3,-0.55,-46.69,-46.61,0,*6F
1486994528.27,28297,12.31,74252.3,-0.55,-46.41,-46.35,0,*65
1486994529.5,28298,12.25,74254.8,-0.59,-46.75,-46.75,0,*65
1486994530.79,28299,12.31,74252.0,-0.59,-46.49,-46.27,0,*6C
1486994531.99,28300,12.31,74254.3,-0.57,-47.09,-47.09,0,*6B
1486994533.21,28301,12.31,74254.3,-0.59,-47.17,-47.17,0,*64
1486994534.47,28302,12.31,74252.3,-0.59,-47.79,-47.57,0,*6B
1486994535.67,28303,12.31,74254.5,-0.61,-46.97,-46.75,0,*61
1486994536.95,28304,12.25,74252.8,-0.63,-47.03,-47.23,0,*6A
1486994538.2,28305,12.31,74256.5,-0.63,-47.79,-47.65,0,*64
1486994539.48,28306,12.31,74258.3,-0.67,-46.69,-46.61,0,*66
1486994540.75,28307,12.25,74252.5,-0.67,-46.61,-46.61,0,*6F
1486994542.01,28308,12.31,74260.3,-0.67,-47.45,-47.31,0,*63
1486994543.29,28309,12.31,74254.8,-0.67,-46.69,-46.69,0,*61
1486994544.49,28310,12.31,74252.5,-0.69,-47.09,-46.97,0,*61
1486994545.72,28311,12.31,74258.3,-0.69,-47.37,-47.51,0,*66
1486994546.92,28312,12.25,74254.3,-0.69,-47.57,-47.51,0,*63
1486994548.14,28313,12.25,74254.3,-0.71,-47.31,-47.17,0,*69
1486994549.42,28314,12.31,74258.8,-0.71,-46.49,-46.41,0,*62
1486994550.65,28315,12.31,74254.8,-0.71,-46.01,-46.01,0,*6B
1486994551.92,28316,12.31,74258.8,-0.71,-45.81,-45.81,0,*68
1486994553.19,28317,12.25,74254.3,-0.71,-46.41,-46.41,0,*69
1486994554.42,28318,12.31,74256.3,-0.73,-47.79,-47.57,0,*68
1486994555.69,28319,12.31,74258.8,-0.71,-46.49,-46.41,0,*6F
1486994556.9,28320,12.31,74254.0,-0.73,-46.97,-46.97,0,*6F
1486994558.12,28321,12.25,74252.5,-0.73,-47.03,-47.17,0,*6B
1486994559.32,28322,12.31,74256.8,-0.73,-46.35,-46.35,0,*6D
1486994560.57,28323,12.25,74252.3,-0.75,-47.03,-46.97,0,*66
1486994561.8,28324,12.31,74254.8,-0.75,-46.55,-46.35,0,*6B
1486994563.07,28325,12.31,74258.0,-0.75,-45.73,-45.73,0,*6C
1486994564.36,28326,12.25,74254.0,-0.75,-46.15,-46.07,0,*6C
1486994565.58,28327,12.31,74256.0,-0.75,-45.95,-45.95,0,*6E
1486994566.82,28328,12.31,74256.3,-0.75,-46.83,-46.83,0,*61
1486994568.08,28329,12.31,74258.8,-0.75,-46.49,-46.35,0,*6B
1486994569.31,28330,12.31,74256.0,-0.75,-46.35,-46.55,0,*6E
1486994570.6,28331,12.25,74256.5,-0.75,-47.37,-47.45,0,*6C
1486994571.85,28332,12.31,74256.8,-0.75,-47.03,-46.97,0,*66
1486994573.13,28333,12.31,74256.5,-0.75,-46.27,-46.27,0,*6B
1486994574.33,28334,12.31,74256.5,-0.77,-45.61,-45.41,0,*6C
1486994575.56,28335,12.31,74258.3,-0.77,-45.27,-45.13,0,*68
1486994576.82,28336,12.31,74258.0,-0.75,-45.47,-45.53,0,*6B
1486994578.05,28337,12.31,74260.8,-0.75,-45.67,-45.53,0,*68
1486994579.3,28338,12.31,74260.3,-0.75,-45.47,-45.53,0,*65
1486994580.53,28339,12.31,74260.3,-0.75,-45.53,-45.33,0,*67
1486994581.77,28340,12.31,74256.8,-0.75,-44.87,-44.87,0,*6F
1486994583.02,28341,12.31,74256.3,-0.73,-45.27,-45.07,0,*6A
1486994584.28,28342,12.31,74256.3,-0.75,-45.53,-45.27,0,*6E
1486994585.56,28343,12.31,74256.8,-0.75,-45.27,-45.07,0,*6E
1486994586.78,28344,12.31,74256.5,-0.73,-45.47,-45.33,0,*6E
1486994587.98,28345,12.31,74258.0,-0.73,-45.33,-45.21,0,*6F
1486994589.2,28346,12.31,74258.0,-0.71,-45.21,-45.13,0,*6C
1486994590.45,28347,12.31,74258.3,-0.73,-45.47,-45.27,0,*68
1486994591.65,28348,12.31,74258.0,-0.73,-45.53,-45.33,0,*67
1486994592.9,28349,12.31,74262.5,-0.73,-46.27,-46.27,0,*60
1486994594.13,28350,12.31,74260.0,-0.73,-46.15,-45.95,0,*63
1486994595.39,28351,12.31,74260.0,-0.73,-46.07,-46.15,0,*6A
1486994596.62,28352,12.31,74258.3,-0.73,-46.35,-46.49,0,*61
1486994597.9,28353,12.31,74260.0,-0.75,-46.27,-46.27,0,*6D
1486994599.15,28354,12.31,74256.8,-0.73,-45.47,-45.27,0,*6A
1486994600.37,28355,12.31,74260.3,-0.73,-45.47,-45.33,0,*6E
1486994601.58,28356,12.31,74262.0,-0.73,-45.21,-45.21,0,*6E
1486994602.77,28357,12.31,74260.8,-0.73,-45.33,-45.21,0,*6C
1486994604.02,28358,12.31,74258.0,-0.73,-45.27,-45.07,0,*62
1486994605.25,28359,12.31,74258.8,-0.71,-45.21,-44.99,0,*61
1486994606.45,28360,12.31,74258.0,-0.73,-45.21,-45.21,0,*6B
1486994607.7,28361,12.31,74258.3,-0.71,-45.87,-45.81,0,*6E
1486994608.9,28362,12.31,74256.5,-0.73,-45.53,-45.33,0,*6F
1486994610.16,28363,12.25,74256.5,-0.73,-45.27,-45.07,0,*6A
1486994611.41,28364,12.31,74258.0,-0.73,-45.27,-45.07,0,*6D
1486994612.65,28365,12.31,74260.8,-0.71,-45.67,-45.47,0,*6E
1486994613.9,28366,12.31,74258.0,-0.73,-45.81,-45.81,0,*6D
1486994615.12,28367,12.31,74256.8,-0.73,-45.67,-45.73,0,*69
1486994616.37,28368,12.31,74256.5,-0.73,-46.15,-46.07,0,*60
1486994617.59,28369,12.31,74256.5,-0.73,-47.17,-47.03,0,*67
1486994618.88,28370,12.31,74258.3,-0.75,-46.15,-46.15,0,*6C
1486994620.16,28371,12.31,74258.0,-0.75,-45.47,-45.27,0,*6B
1486994621.41,28372,12.31,74258.5,-0.75,-44.87,-44.67,0,*60
1486994622.66,28373,12.31,74260.8,-0.73,-46.15,-46.27,0,*68
1486994623.92,28374,12.31,74258.0,-0.73,-46.49,-46.27,0,*66
1486994625.18,28375,12.31,74256.3,-0.73,-46.27,-46.15,0,*6E
1486994626.4,28376,12.31,74260.8,-0.73,-45.47,-45.53,0,*69
1486994627.63,28377,12.31,74256.8,-0.75,-45.87,-45.87,0,*6B
1486994628.88,28378,12.31,74256.3,-0.75,-45.73,-45.53,0,*66
1486994630.13,28379,12.31,74258.5,-0.75,-45.07,-44.99,0,*63
1486994631.35,28380,12.31,74256.0,-0.75,-45.67,-45.67,0,*63
1486994632.57,28381,12.31,74258.3,-0.73,-45.47,-45.33,0,*67
1486994633.83,28382,12.31,74258.3,-0.73,-45.27,-45.07,0,*65
1486994635.05,28383,12.31,74256.0,-0.71,-45.41,-45.21,0,*62
1486994636.32,28384,12.31,74256.5,-0.71,-45.47,-45.47,0,*63
1486994637.54,28385,12.31,74256.0,-0.71,-45.41,-45.61,0,*60
1486994638.8,28386,12.31,74260.3,-0.73,-46.07,-46.07,0,*63
1486994640.03,28387,12.31,74258.5,-0.73,-46.35,-46.49,0,*69
1486994641.25,28388,12.31,74256.5,-0.73,-46.07,-45.95,0,*65
1486994642.53,28389,12.31,74258.8,-0.71,-45.27,-45.27,0,*6E
1486994643.74,28390,12.31,74258.0,-0.73,-45.53,-45.53,0,*64
1486994644.95,28391,12.31,74256.5,-0.73,-45.73,-45.67,0,*60
1486994646.15,28392,12.31,74258.0,-0.73,-45.33,-45.21,0,*65
1486994647.34,28393,12.31,74258.8,-0.73,-45.53,-45.67,0,*60
1486994648.61,28394,12.31,74256.3,-0.71,-46.41,-46.61,0,*60
1486994649.85,28395,12.31,74258.5,-0.75,-46.83,-46.83,0,*67
1486994651.14,28396,12.31,74258.8,-0.75,-46.27,-46.15,0,*65
1486994652.38,28397,12.31,74256.0,-0.77,-45.73,-45.73,0,*67
1486994653.64,28398,12.31,74254.0,-0.75,-46.35,-46.27,0,*69
1486994654.92,28399,12.31,74256.3,-0.75,-46.07,-46.15,0,*68
1486994656.15,28400,12.31,74256.8,-0.75,-45.87,-45.95,0,*6F
1486994657.36,28401,12.31,74258.0,-0.77,-46.01,-46.01,0,*6F
1486994658.59,28402,12.31,74258.5,-0.77,-46.35,-46.41,0,*6F
1486994659.84,28403,12.31,74256.5,-0.79,-46.41,-46.35,0,*60
1486994661.06,28404,12.31,74256.5,-0.77,-45.61,-45.73,0,*69
1486994662.29,28405,12.31,74258.8,-0.77,-45.13,-45.07,0,*6E
1486994663.5,28406,12.31,74258.0,-0.77,-46.01,-46.01,0,*68
1486994664.69,28407,12.31,74260.5,-0.77,-45.33,-45.33,0,*69
1486994665.95,28408,12.31,74256.5,-0.75,-46.35,-46.27,0,*67
1486994667.18,28409,12.31,74256.0,-0.77,-46.89,-47.09,0,*6E
1486994668.46,28410,12.31,74252.8,-0.79,-47.03,-47.23,0,*63
1486994669.69,28411,12.31,74258.8,-0.77,-46.55,-46.41,0,*6B
1486994670.94,28412,12.31,74258.0,-0.79,-45.73,-45.61,0,*60
1486994672.19,28413,12.31,74254.3,-0.79,-45.27,-45.13,0,*65
1486994673.47,28414,12.31,74256.3,-0.79,-45.81,-45.81,0,*65
1486994674.67,28415,12.31,74256.8,-0.77,-45.95,-45.95,0,*6A
1486994675.9,28416,12.31,74256.8,-0.79,-46.75,-46.83,0,*6E
1486994677.16,28417,12.31,74256.0,-0.79,-46.15,-46.21,0,*61
1486994678.41,28418,12.31,74258.0,-0.79,-46.55,-46.41,0,*6C
1486994679.61,28419,12.31,74258.0,-0.81,-45.61,-45.41,0,*6D
1486994680.87,28420,12.31,74258.5,-0.79,-46.01,-46.15,0,*67
1486994682.13,28421,12.31,74258.3,-0.81,-46.61,-46.49,0,*6E
1486994683.39,28422,12.31,74256.5,-0.81,-46.07,-46.07,0,*67
1486994684.63,28423,12.31,74256.8,-0.81,-46.01,-46.07,0,*60
1486994685.87,28424,12.31,74256.0,-0.79,-46.83,-46.83,0,*66
1486994687.07,28425,12.31,74260.3,-0.81,-47.09,-47.09,0,*60
1486994688.3,28426,12.31,74256.0,-0.83,-47.09,-47.09,0,*61
1486994689.53,28427,12.31,74256.5,-0.83,-47.09,-47.09,0,*60
1486994690.76,28428,12.31,74258.8,-0.83,-47.17,-47.17,0,*6F
1486994691.98,28429,12.31,74258.5,-0.85,-46.75,-46.75,0,*68
1486994693.21,28430,12.31,74260.0,-0.85,-46.35,-46.35,0,*60
1486994694.43,28431,12.31,74260.3,-0.85,-46.55,-46.55,0,*61
1486994695.66,28432,12.31,74258.3,-0.85,-46.75,-46.75,0,*62
1486994696.91,28433,12.31,74260.0,-0.89,-47.51,-47.45,0,*6A
1486994698.16,28434,12.31,74258.5,-0.89,-46.21,-46.15,0,*6F
1486994699.38,28435,12.31,74260.0,-0.89,-45.53,-45.33,0,*6F
1486994700.6,28436,12.31,74260.3,-0.89,-45.33,-45.33,0,*6A
1486994701.86,28437,12.31,74262.0,-0.85,-45.27,-45.21,0,*61
1486994703.08,28438,12.31,74258.3,-0.85,-45.21,-44.99,0,*6A
1486994704.35,28439,12.31,74262.3,-0.85,-45.47,-45.47,0,*69
1486994705.6,28440,12.31,74258.5,-0.85,-45.53,-45.47,0,*62
1486994706.87,28441,12.31,74256.8,-0.85,-45.47,-45.27,0,*60
1486994708.15,28442,12.31,74258.5,-0.83,-45.47,-45.47,0,*63
1486994709.36,28443,12.31,74260.5,-0.85,-45.41,-45.41,0,*64
1486994710.62,28444,12.31,74258.5,-0.83,-45.47,-45.33,0,*66
1486994711.87,28445,12.31,74262.3,-0.85,-45.53,-45.47,0,*67
1486994713.08,28446,12.31,74256.8,-0.85,-45.87,-45.95,0,*62
1486994714.37,28447,12.31,74256.8,-0.83,-46.27,-46.27,0,*66
1486994715.66,28448,12.31,74258.5,-0.85,-46.15,-46.07,0,*6C
1486994716.87,28449,12.31,74260.0,-0.85,-45.87,-45.87,0,*6E
1486994718.1,28450,12.31,74256.3,-0.85,-45.95,-45.87,0,*65
1486994719.32,28451,12.31,74256.5,-0.85,-45.53,-45.41,0,*64
1486994720.54,28452,12.31,74258.5,-0.85,-45.95,-45.87,0,*67
1486994721.76,28453,12.31,74256.5,-0.85,-45.67,-45.53,0,*62
1486994723.03,28454,12.31,74262.8,-0.85,-45.47,-45.47,0,*62
1486994724.29,28455,12.31,74256.5,-0.83,-45.47,-45.21,0,*65
1486994725.54,28456,12.31,74256.8,-0.85,-46.49,-46.35,0,*6B
1486994726.81,28457,12.31,74258.3,-0.85,-46.69,-46.89,0,*6F
1486994728.06,28458,12.31,74260.5,-0.85,-46.75,-46.69,0,*63
1486994729.32,28459,12.31,74254.3,-0.89,-46.15,-46.01,0,*66
1486994730.54,28460,12.31,74256.3,-0.89,-45.95,-45.95,0,*69
1486994731.77,28461,12.31,74256.8,-0.89,-46.35,-46.55,0,*6E
1486994732.97,28462,12.31,74258.5,-0.91,-46.21,-46.21,0,*62
1486994734.22,28463,12.31,74258.0,-0.89,-45.73,-45.53,0,*68
1486994735.49,28464,12.31,74258.3,-0.89,-45.47,-45.27,0,*6B
1486994736.73,28465,12.31,74258.8,-0.89,-46.75,-46.61,0,*69
1486994737.95,28466,12.31,74256.3,-0.89,-46.21,-46.21,0,*6F
1486994739.19,28467,12.31,74262.0,-0.91,-46.01,-46.15,0,*62
1486994740.47,28468,12.31,74258.3,-0.89,-46.15,-46.15,0,*61
1486994741.71,28469,12.31,74260.0,-0.91,-46.01,-46.15,0,*6C
1486994742.94,28470,12.31,74258.8,-0.89,-46.01,-46.01,0,*68
1486994744.19,28471,12.31,74260.5,-0.91,-45.73,-45.81,0,*6D
1486994745.42,28472,12.31,74256.3,-0.91,-45.53,-45.47,0,*66
1486994746.67,28473,12.31,74258.5,-0.91,-45.73,-45.81,0,*6F
1486994747.87,28474,12.31,74256.5,-0.91,-45.95,-46.01,0,*6B
1486994749.08,28475,12.31,74256.0,-0.91,-46.35,-46.21,0,*61
1486994750.31,28476,12.31,74260.0,-0.91,-45.81,-45.53,0,*68
1486994751.53,28477,12.31,74256.0,-0.91,-45.73,-45.53,0,*64
1486994752.76,28478,12.31,74254.5,-0.91,-46.15,-46.21,0,*6E
1486994754.01,28479,12.31,74260.0,-0.89,-45.73,-45.61,0,*62
1486994755.21,28480,12.31,74256.3,-0.91,-46.75,-46.83,0,*67
1486994756.49,28481,12.31,74256.3,-0.93,-46.49,-46.41,0,*65
1486994757.72,28482,12.31,74256.5,-0.93,-45.87,-46.01,0,*63
1486994758.94,28483,12.31,74256.8,-0.91,-45.73,-45.53,0,*6F
1486994760.2,28484,12.31,74258.3,-0.91,-44.93,-44.73,0,*64
1486994761.42,28485,12.31,74256.0,-0.85,-45.41,-45.41,0,*6E
1486994762.66,28486,12.31,74258.8,-0.89,-45.73,-45.53,0,*63
1486994763.86,28487,12.31,74256.8,-0.91,-45.33,-45.33,0,*69
1486994765.08,28488,12.31,74256.5,-0.91,-46.41,-46.55,0,*63
1486994766.34,28489,12.31,74256.0,-0.91,-47.03,-47.23,0,*65
1486994767.54,28490,12.31,74258.8,-0.95,-47.31,-47.51,0,*6D
1486994768.81,28491,12.31,74258.8,-0.93,-46.89,-46.83,0,*66
1486994770.04,28492,12.31,74258.5,-0.95,-46.07,-46.01,0,*6F
1486994771.26,28493,12.31,74256.3,-0.93,-45.87,-45.87,0,*6E
1486994772.47,28494,12.31,74256.8,-0.91,-46.55,-46.55,0,*6B
1486994773.72,28495,12.31,74258.8,-0.95,-47.03,-47.03,0,*6E
1486994774.94,28496,12.31,74256.0,-0.95,-47.51,-47.37,0,*6D
1486994776.17,28497,12.31,74254.0,-0.95,-47.57,-47.79,0,*60
1486994777.37,28498,12.31,74258.3,-0.99,-47.65,-47.65,0,*6F
1486994778.59,28499,12.31,74260.0,-0.97,-47.65,-47.57,0,*61
1486994779.83,28500,12.31,74256.8,-0.99,-48.35,-48.35,0,*6F
1486994781.09,28501,12.31,74260.3,-1.01,-47.23,-47.31,0,*5D
1486994782.34,28502,12.31,74256.0,-1.01,-48.07,-48.07,0,*5D
1486994783.57,28503,12.31,74256.3,-1.03,-47.57,-47.71,0,*5A
1486994784.78,28504,12.31,74262.0,-1.03,-47.09,-47.09,0,*59
1486994786.01,28505,12.31,74256.0,-1.05,-47.57,-47.57,0,*5E
1486994787.22,28506,12.31,74258.0,-1.07,-47.57,-47.65,0,*5E
1486994788.48,28507,12.31,74258.0,-1.05,-46.89,-46.83,0,*56
1486994789.72,28508,12.31,74258.8,-1.07,-46.69,-46.97,0,*50
1486994790.98,28509,12.31,74256.3,-1.07,-47.37,-47.37,0,*50
1486994792.25,28510,12.31,74258.0,-1.07,-46.49,-46.49,0,*58
1486994793.52,28511,12.31,74252.0,-1.07,-46.27,-46.49,0,*51
1486994794.79,28512,12.31,74256.0,-1.07,-47.37,-47.45,0,*5F
1486994796.05,28513,12.31,74258.0,-1.07,-46.69,-46.69,0,*5B
1486994797.27,28514,12.31,74258.8,-1.07,-47.09,-47.31,0,*57
1486994798.48,28515,12.31,74256.3,-1.11,-46.97,-47.09,0,*5C
1486994799.74,28516,12.31,74254.3,-1.13,-47.23,-47.17,0,*5C
1486994801.03,28517,12.31,74258.0,-1.13,-47.37,-47.37,0,*5A
1486994802.24,28518,12.31,74256.5,-1.11,-47.85,-47.85,0,*57
1486994803.47,28519,12.31,74256.3,-1.15,-47.65,-47.71,0,*57
1486994804.72,28520,12.31,74254.8,-1.17,-47.23,-47.23,0,*5A
1486994805.98,28521,12.31,74258.8,-1.15,-47.03,-47.03,0,*59
1486994807.2,28522,12.31,74254.5,-1.15,-46.97,-46.97,0,*5A
1486994808.45,28523,12.31,74258.0,-1.17,-45.81,-45.81,0,*59
1486994809.7,28524,12.31,74258.0,-1.17,-46.49,-46.27,0,*56
1486994810.91,28525,12.31,74256.5,-1.17,-45.95,-46.01,0,*51
1486994812.17,28526,12.31,74256.8,-1.17,-46.07,-46.07,0,*5C
1486994813.42,28527,12.31,74258.0,-1.17,-46.49,-46.41,0,*55
1486994814.68,28528,12.31,74256.3,-1.17,-46.15,-46.41,0,*53
1486994815.91,28529,12.31,74254.5,-1.15,-45.95,-45.73,0,*59
1486994817.12,28530,12.31,74258.3,-1.15,-45.87,-45.87,0,*59
1486994818.36,28531,12.31,74256.3,-1.15,-45.13,-44.93,0,*51
1486994819.58,28532,12.31,74256.8,-1.15,-46.21,-46.21,0,*5B
1486994820.78,28533,12.31,74256.0,-1.17,-45.61,-45.61,0,*58
1486994822.03,28534,12.31,74258.3,-1.17,-45.81,-45.81,0,*5F
1486994823.24,28535,12.31,74256.0,-1.15,-46.21,-46.35,0,*59
1486994824.45,28536,12.31,74258.8,-1.15,-45.95,-45.87,0,*5C
1486994825.68,28537,12.31,74256.8,-1.15,-45.33,-45.27,0,*5B
1486994826.94,28538,12.31,74256.3,-1.15,-45.47,-45.27,0,*57
1486994828.17,28539,12.31,74260.0,-1.13,-45.33,-45.13,0,*54
1486994829.46,28540,12.31,74256.0,-1.13,-45.27,-45.07,0,*5A
1486994830.72,28541,12.31,74256.8,-1.13,-45.27,-45.13,0,*5E
1486994831.99,28542,12.31,74258.8,-1.13,-44.87,-44.73,0,*51
1486994833.23,28543,12.31,74256.8,-1.11,-44.67,-44.61,0,*5F
1486994834.44,28544,12.31,74256.8,-1.07,-44.99,-44.87,0,*56
1486994835.68,28545,12.31,74256.3,-1.07,-45.07,-44.87,0,*51
1486994836.92,28546,12.31,74254.5,-1.07,-45.07,-45.21,0,*5F
1486994838.16,28547,12.31,74258.8,-1.07,-45.07,-44.99,0,*5C
1486994839.42,28548,12.31,74258.3,-1.05,-44.73,-44.61,0,*54
1486994840.66,28549,12.31,74256.8,-1.07,-45.27,-45.41,0,*54
1486994841.95,28550,12.31,74254.0,-1.05,-46.49,-46.49,0,*5E
1486994843.19,28551,12.31,74252.0,-1.07,-46.69,-46.75,0,*50
1486994844.41,28552,12.31,74258.3,-1.07,-46.35,-46.35,0,*5E
1486994845.62,28553,12.31,74260.8,-1.07,-47.17,-47.09,0,*50
1486994846.88,28554,12.31,74256.0,-1.13,-46.55,-46.61,0,*5A
1486994848.08,28555,12.31,74258.0,-1.11,-45.95,-45.87,0,*5D
1486994849.31,28556,12.31,74258.5,-1.13,-45.13,-45.13,0,*5F
1486994850.55,28557,12.31,74256.5,-1.11,-45.41,-45.27,0,*5C
1486994851.78,28558,12.31,74252.0,-1.13,-45.87,-45.87,0,*51
1486994853.01,28559,12.31,74252.8,-1.11,-46.07,-45.87,0,*59
1486994854.25,28560,12.31,74256.5,-1.13,-46.21,-46.01,0,*58
1486994855.49,28561,12.31,74258.0,-1.11,-45.61,-45.47,0,*5D
1486994856.69,28562,12.31,74258.0,-1.11,-45.95,-45.87,0,*59
1486994857.95,28563,12.31,74256.5,-1.11,-46.69,-46.69,0,*5B
1486994859.16,28564,12.31,74256.3,-1.11,-45.95,-45.87,0,*5F
1486994860.39,28565,12.31,74254.3,-1.11,-46.07,-45.87,0,*56
1486994861.63,28566,12.31,74254.5,-1.13,-45.53,-45.33,0,*5A
1486994862.87,28567,12.31,74256.8,-1.11,-45.95,-45.81,0,*5A
1486994864.1,28568,12.31,74256.8,-1.11,-45.81,-45.61,0,*5E
1486994865.33,28569,12.31,74258.5,-1.11,-46.07,-45.87,0,*5A
1486994866.59,28570,12.31,74258.5,-1.13,-46.41,-46.35,0,*58
1486994867.83,28571,12.31,74256.8,-1.13,-46.35,-46.21,0,*5F
1486994869.09,28572,12.31,74256.3,-1.13,-46.55,-46.61,0,*5E
1486994870.33,28573,12.38,74258.8,-1.13,-46.21,-46.35,0,*5D
1486994871.56,28574,12.31,74256.5,-1.13,-45.67,-45.67,0,*5F
1486994872.79,28575,12.31,74256.5,-1.15,-45.73,-45.67,0,*5D
1486994874.02,28576,12.31,74256.5,-1.15,-45.73,-45.53,0,*59
1486994875.26,28577,12.31,74258.5,-1.13,-46.21,-46.01,0,*5E
1486994876.5,28578,12.31,74256.0,-1.15,-46.15,-45.95,0,*5E
1486994877.74,28579,12.38,74258.0,-1.13,-46.01,-45.87,0,*5F
1486994878.95,28580,12.31,74258.8,-1.17,-45.53,-45.41,0,*53
1486994880.16,28581,12.31,74258.3,-1.15,-45.53,-45.53,0,*53
1486994881.38,28582,12.31,74256.8,-1.15,-45.53,-45.53,0,*50
1486994882.67,28583,12.31,74256.5,-1.13,-45.07,-44.93,0,*5B
1486994883.91,28584,12.31,74256.8,-1.11,-45.47,-45.41,0,*54
1486994885.17,28585,12.31,74256.5,-1.13,-45.53,-45.47,0,*54
1486994886.4,28586,12.31,74256.3,-1.11,-45.47,-45.41,0,*56
1486994887.64,28587,12.31,74256.3,-1.13,-46.01,-45.95,0,*5D
1486994888.87,28588,12.31,74258.5,-1.13,-45.95,-45.87,0,*5F
1486994890.11,28589,12.31,74258.0,-1.13,-45.53,-45.33,0,*5B
1486994891.37,28590,12.31,74256.5,-1.13,-45.47,-45.33,0,*56
1486994892.61,28591,12.31,74258.8,-1.15,-45.53,-45.47,0,*57
1486994893.84,28592,12.38,74262.3,-1.13,-45.67,-45.53,0,*50
1486994895.08,28593,12.31,74260.0,-1.13,-46.21,-46.35,0,*53